www.pogodaiklimat.ru
ПОГОДА в Ланкастере
Время
и дата
08:53 23.06
09:53 23.06
10:53 23.06
11:53 23.06
12:53 23.06
13:53 23.06
14:53 23.06
15:53 23.06
16:53 23.06
17:53 23.06
18:53 23.06
19:53 23.06
20:53 23.06
21:43 23.06
21:53 23.06
22:05 23.06
22:21 23.06
22:36 23.06
22:43 23.06
22:53 23.06
23:53 23.06
00:53 24.06
01:53 24.06
02:53 24.06
03:53 24.06
04:53 24.06
05:53 24.06
06:53 24.06
07:53 24.06
08:53 24.06
09:53 24.06
10:53 24.06
11:53 24.06
12:53 24.06
13:53 24.06
14:53 24.06
15:53 24.06
16:53 24.06
17:53 24.06
18:53 24.06
19:53 24.06
20:53 24.06
21:53 24.06
22:53 24.06
23:53 24.06
00:53 25.06
01:53 25.06
02:53 25.06
Ветер
(напр.,м/с)
Видим. Явления Облачность Т
(С)
Тd
(С)
f
(%)
Тe
(С)
Тes
(С)
Комфортность P
(гПа)
Po
(гПа)
Тmin
(С)
Tmax
(С)
R
(мм)
R24
(мм)
S
(см)
ЮЗ 4 16 км ясно +30.6 +20.0 53 +37 +42 очень
душно
1007.7 993.6
ЮЗ 6
{9}
16 км ясно +33.3 +20.0 46 +40 +44 очень
душно
1007.0 993.0
З 7
{12}
16 км ясно +32.8 +19.4 45 +38 +43 очень
душно
1006.8 992.6
ЮЗ 7 16 км 2/0 3300 m
[Ac]
+32.2 +19.4 47 +38 +43 очень
душно
1006.1 992.0
ЮЗ 7
{13}
16 км ясно +33.3 +19.4 44 +39 +45 очень
душно
1005.3 991.3 +27.2 +33.9
ЮЗ 7
{12}
16 км слабый дождь 2/2 1800 m
[Ns]
+33.3 +20.0 46 +40 +44 очень
душно
1004.7 990.6
ЮЗ 9
{13}
16 км слабый дождь ясно +32.8 +19.4 45 +38 +40 очень
душно
1004.0 990.0
ЮЗ 8
{13}
16 км ясно +32.2 +20.0 49 +39 +41 очень
душно
1003.5 989.6
ЮЗ 5 16 км 10/2 1950 m
[Ac]
+30.6 +21.1 57 +38 +39 очень
душно
1003.4 989.3
З 9
{13}
14 км слабый дождь 8/0 2700 m
[Ac As]
+30.6 +17.2 45 +35 +35 очень
душно
1003.2 989.3
ЮЗ 4 16 км 10/0 2850 m
[Ac]
+30.0 +17.2 46 +34 +34 очень
душно
1003.0 989.0 +28.3 +33.9
ЮЗ 5 16 км 10/0 2700 m
[Ac]
+30.0 +17.2 46 +34 +34 очень
душно
1002.7 989.0
З 4 16 км 2/0 3000 m
[Ac]
+29.4 +17.2 48 +33 +33 душно 1002.4 988.3
З 7
{10}
11 км гроза, слабый дождь 10/8 1380 m
[Ac Cb]
+28.3 +18.3 55 +33 +33 очень
душно
989.0
З 4 16 км слабый дождь 10/2 1350 m
[Ac Ns]
+26.1 +20.6 72 +33 +33 очень
душно
1003.1 989.3 0.3
З 3 14 км гроза, слабый дождь 10/8 1800 m
[Ac Cb]
+25.6 +20.6 74 +32 +32 очень
душно
989.0
ЮЗ 5
{11}
5 км гроза с сильным дождем 10/8 1200 m
[Ac Cb]
+23.9 +21.1 84 +30 +30 очень
душно
989.6
ЮЗ 3 16 км гроза, слабый дождь 10/8 1260 m
[Ac Cb]
+23.3 +21.7 91 +32 +32 очень
душно
989.3
З 3 10 км дождь, дымка 10/8 1170 m
[Ac Ns]
+23.3 +21.7 91 +32 +32 очень
душно
989.3
ЮЗ 4 14 км слабый дождь 10/8 1650 m
[Ac Ns]
+23.3 +21.7 91 +32 +32 очень
душно
1003.4 989.6
СЗ 2 16 км слабый дождь 10/5 1500 m
[Ac Ns]
+23.9 +22.2 90 +31 +31 очень
душно
1003.0 989.0
СЗ 2 16 км 10/8 1950 m
[Ac]
+23.9 +22.2 90 +31 +31 очень
душно
1003.4 989.6 +23.3 +30.0 3.6
З 5 16 км 10/0 2100 m
[Ac]
+24.4 +21.1 82 +31 +31 очень
душно
1003.4 989.6
СЗ 4 16 км 5/0 2700 m
[Ac]
+23.9 +20.0 79 +29 +29 душно 1003.3 989.3
З 4 16 км ясно +23.3 +18.9 76 +30 +30 очень
душно
1003.6 989.6 0.3
З 4 16 км 2/2 450 м +22.2 +18.3 79 +27 +27 душно 1004.6 990.6
СЗ 7 16 км 2/2 660 м +22.8 +17.2 71 +28 +28 душно 1005.2 991.3
СЗ 6
{9}
16 км 2/2 660 м +23.3 +17.2 69 +29 +29 душно 1005.8 992.0 +21.7 +25.0 0.3 3.8
СЗ 7
{12}
16 км 2/2 1020 м +23.9 +14.4 55 +26 +27 жарко 1006.7 992.6
СЗ 7
{13}
16 км 8/8 1260 м +23.3 +13.3 53 +26 +27 жарко 1007.3 993.3
СЗ 8
{15}
16 км 5/5 1320 м +25.0 +13.3 48 +27 +28 жарко 1007.5 993.3
СЗ 9
{15}
16 км 5/5 1650 м +26.1 +12.8 44 +28 +29 жарко 1007.9 994.0
СЗ 9
{16}
16 км 2/2 1800 м +26.7 +10.6 36 +27 +29 жарко 1008.5 994.3
СЗ 10
{15}
16 км 2/0 2100 m
[Ac]
+27.2 +10.6 35 +28 +29 жарко 1008.7 994.6 +22.8 +27.8
СЗ 9
{15}
16 км 8/0 2100 m
[Ac]
+27.2 +10.0 34 +28 +29 жарко 1008.8 994.6
С 9
{14}
16 км 2/0 2400 m
[Ac]
+28.3 +8.9 30 +28 +30 жарко 1008.7 994.6
С 6
{12}
16 км 5/0 2550 m
[Ac]
+28.3 +8.9 30 +28 +32 жарко 1008.9 994.6
СЗ 8
{13}
16 км 2/0 2400 m
[Ac]
+27.2 +9.4 33 +28 +29 жарко 1009.4 995.3
С 6
{10}
16 км ясно +27.2 +10.0 34 +28 +29 жарко 1009.5 995.3
С 3 16 км ясно +26.1 +10.0 36 +27 +28 жарко 1010.1 996.0 +26.1 +29.4
СЗ 2 16 км ясно +23.9 +10.6 43 +25 +25 комфорт 1010.8 996.6
З 2 16 км ясно +22.2 +11.1 49 +24 +24 комфорт 1011.5 997.3
З 3 16 км ясно +21.7 +11.1 51 +24 +24 комфорт 1012.2 998.0
СЗ 3 16 км ясно +19.4 +11.7 61 +21 +21 комфорт 1012.6 998.3
З 3 16 км ясно +18.9 +11.7 63 +20 +20 1012.8 998.6
З 3 16 км ясно +17.8 +11.7 67 +18 +18 1013.3 999.0 +17.2 +26.1
З 3 16 км ясно +16.7 +12.2 75 +16 +16 1013.6 999.3
З 3 14 км ясно +16.7 +12.2 75 +16 +16 1014.3 1000.0
Местоположение метеостанции Lancaster Airport: широта 40.1206 долгота -76.2945 высота над уровнем моря 121 м.
В архиве по умолчанию представлена погода в Ланкастере за последние 1-2 суток. Обновление информации о фактической погоде в базе происходит ежечасно! Архивные данные за месяц целиком и за предыдущие месяцы Вы можете получить, выбрав интересующий диапазон дат из раскрывающегося списка и нажав кнопку "Ввод!".
Внимание! Архив погоды МЕТАР в базе сайта по станциям, не включенным в климатический монитор, хранится не более 60 дней. Нет смысла пытаться выбрать более раннюю дату.
*Определитесь, кто Вы:
Внимание! Время в таблицах - местное (без учета летнего времени). Для получения всемирного времени необходимо вычесть поправку, которая равна -5 ч.
Смотрите также архив погоды в соседних городах и на ближайших метеорологических станциях:
Партнеры нашего сайта:      
Пояснения к столбцам:
  • Ветер - указаны скорость ветра в м/с - средняя за 10 мин, порывы в срок и между сроками (в фигурных скобках) и направление, откуда дует ветер: С - северный,
  • СВ - северо-восточный, В - восточный, ЮВ - юго-восточный, Ю - южный, ЮЗ - юго-западный, З - западный, СЗ - северо-западный.
  • Видимость - горизонтальная дальность видимости в метрах или километрах. При видимости от 1 до 10 км при отсутствии осадков обычно наблюдается дымка, при ухудшении видимости до 1 км и менее - туман. В сухую погоду видимость может ухудшаться дымом, пылью или мглою.
  • Явления - указаны атмосферные явления, наблюдавшиеся в срок или в последний час перед сроком; фигурными скобками обозначены явления, наблюдавшиеся между сроками (за 1-3 часа до срока); квадратными скобками обозначены град или гололедные отложения с указанием их диаметра в мм.
  • Облачность - указаны через наклонную черту общая и нижняя облачность в баллах и высота нижней границы облаков в метрах; квадратными скобками обозначены формы облаков: Ci - перистые, Cs - перисто-слоистые, Cc - перисто-кучевые, Ac - высококучевые, As - высокослоистые, Sc - слоисто-кучевые, Ns - слоисто-дождевые, Cu - кучевые, Cb - кучево-дождевые. Подробнее классификацию облаков см. в Атласе облаков (PDF).
  • T - Температура воздуха - температура, измеренная на высоте 2 м над землей.
  • Td - Температура точки росы - температура, при понижении до которой содержащийся в воздухе водяной пар достигнет насыщения.
  • f - Относительная влажность воздуха - влажноcть воздуха, измеренная на высоте 2 м над землей.
  • Te - Эффективная температура - температура, которую ощущает одетый по сезону человек в тени. Характеристика душности погоды. При расчете учитывается влияние влажности воздуха и скорости ветра на теплоощущения человека.
  • Tes - Эффективная температура на солнце - температура, которую ощущает человек, с поправкой на солнечный нагрев. Характеристика знойности погоды. Зависит от высоты солнца над горизонтом, облачности и скорости ветра. Ночью, в пасмурную погоду, а также при ветре 12 м/с и более поправка равна нулю.
  • P - Атмосферное давление - приведенное к уровню моря атмосферное давление.
  • Po - Атмосферное давление - измеренное на уровне метеостанции атмосферное давление.
  • Tmin - Минимальная температура - минимум температуры воздуха на высоте 2 м над землей.
  • Tmax - Максимальная температура - максимум температуры воздуха на высоте 2 м над землей.
  • R - Количество осадков - Количество выпавших осадков за период времени, мм. При наведении курсора мыши на число - период времени, за который выпало указанное количество осадков.
  • R24 - Количество осадков - Количество выпавших осадков за 24 часа, мм.
  • S - Снежный покров - Высота снежного покрова, см. При наведении курсора мыши на число - состояние снежного покрова и степень покрытия местности в баллах.